Flag for India Weather past 2 weeks in Bagpat, Uttar Pradesh, India

Now
88 °F

Haze.


Feels Like: 91 °F
Forecast: 76 / 96 °F
Wind: 10 mph from Northwest

Location: New Delhi Palam Airport

Current Time: Sep 21, 2014 at 11:40:21 AM

Latest Report: Sep 21, 2014 at 11:00 AM


Visibility: 3 mi

Pressure: 29.71 "Hg

Humidity: 52%

Dew point: 68 °F

Location of BagpatLocation

Historic Weather in Bagpat — Graph

°F

Bagpat temperature yesterday

Maximum temperature yesterday: 97 °F (at 1:30 PM)
Minimum temperature yesterday: 81 °F (at 4:30 AM)
Average temperature yesterday: 88 °F

Past Weeks' High & Low Weather Summary

 TemperatureHumidityPressure
High97 °F (Sep 7, 4:00 PM)100% (Sep 7, 3:30 AM)29.80 "Hg (Sep 7, 3:30 AM)
Low73 °F (Sep 15, 1:30 AM)34% (Sep 20, 4:30 PM)29.59 "Hg (Sep 6, 4:30 PM)
Average85 °F71%29.68 "Hg
* Reported Sep 6 9:30 AM — Sep 21 10:00 AM, Bagpat, Weather by CustomWeather, © 2014

Note: Actual official high and low records may vary slightly from our data, if they occured in-between our weather recording intervals... More about our weather records

Advertising

Bagpat weather history for previous 24 hours

 ConditionsComfort  
Time TempWeatherWind HumidityBarometerVisibility
10:00 AM
Sep 21
86 °FHaze.9 mph55%29.71 "Hg2 mi
9:30 AM84 °FHaze.8 mph62%29.71 "Hg2 mi
9:00 AM82 °FHaze.6 mph66%29.71 "Hg2 mi
8:00 AM82 °FHaze.6 mph66%29.71 "Hg2 mi
7:30 AM79 °FFog.6 mph79%29.71 "Hg1 mi
7:00 AM77 °FFog.3 mph83%29.68 "Hg1 mi
6:30 AM77 °FFog.3 mph83%29.68 "Hg1 mi
6:00 AM79 °FFog.5 mph79%29.68 "Hg1 mi
5:30 AM79 °FFog.3 mph84%29.68 "Hg1 mi
5:00 AM79 °FFog.5 mph84%29.68 "Hg1 mi
4:30 AM79 °FFog.3 mph84%29.65 "Hg1 mi
4:00 AM79 °FFog.5 mph89%29.65 "Hg1 mi
3:30 AM81 °FFog.3 mph84%29.65 "Hg1 mi
2:30 AM82 °FFog.3 mph79%29.68 "Hg2 mi
1:30 AM82 °FFog.3 mph79%29.68 "Hg2 mi
1:00 AM84 °FHaze.No wind70%29.68 "Hg2 mi
12:30 AM84 °FHaze.No wind70%29.71 "Hg2 mi
12:00 AM84 °FHaze.3 mph70%29.71 "Hg2 mi
11:30 PM
Sep 20
84 °FHaze.3 mph70%29.71 "Hg2 mi
11:00 PM86 °FHaze.3 mph62%29.71 "Hg2 mi
6:30 PM91 °FHaze.6 mph44%29.59 "Hg3 mi
6:00 PM91 °FHaze.7 mph44%29.59 "Hg3 mi
5:30 PM93 °FHaze.8 mph41%29.59 "Hg3 mi
5:00 PM95 °FHaze.7 mph34%29.59 "Hg3 mi
4:30 PM95 °FHaze.7 mph34%29.59 "Hg3 mi
4:00 PM95 °FScattered clouds.5 mph39%29.62 "Hg3 mi
3:30 PM95 °FScattered clouds.3 mph39%29.62 "Hg3 mi
3:00 PM95 °FScattered clouds.5 mph39%29.62 "Hg3 mi
2:30 PM95 °FHaze.5 mph41%29.65 "Hg3 mi
2:00 PM95 °FHaze.6 mph41%29.65 "Hg3 mi
1:30 PM97 °FHaze.6 mph42%29.65 "Hg3 mi
1:00 PM95 °FHaze.3 mph44%29.68 "Hg3 mi
12:00 PM95 °FHaze.5 mph44%29.68 "Hg3 mi
11:30 AM93 °FHaze.6 mph47%29.71 "Hg2 mi
11:00 AM91 °FHaze.6 mph46%29.71 "Hg2 mi
Weather by CustomWeather, © 2014

See weather overviewHow to use our weather pages